KUIPER-00512

导读

KUIPER-00512(NORAD编号68889)是亚马逊Kuiper(现更名为Leo)低轨卫星互联网星座中的一颗卫星,属于该星座一期组网卫星。该星座原计划部署3232颗卫星,旨在为全球网络覆盖不足地区提供高速低延迟互联网服务。KUIPER-00512运行在近地轨道,服务涵盖家庭、企业及政府用户,支持从消费级网络到企业级带宽密集型应用,是亚马逊推进“卫星+AWS云”一体化太空服务网络的组成部分,助力全球高速互联网覆盖布局。

Basic Information
目录编号:
68889
目录名称:
KUIPER-00512
国际标识:
2026-095AB
轨道中心:
EARTH
卫星名称:
KUIPER-00512
卫星全名:
KUIPER-00512
卫星状态:
在轨 (已飞行130 天)
发射日期:
2026-04-28 UTC
国别 :
美国 (US)
星等 :
--
Orbit Information
数据来源 国际轨道数据
星历时间: 2026-09-05T12:34:56+0800
6小时前
查看轨道信息
半长轴: 7007.656km
偏心率: 0.0000542
轨道倾角: 51.902°
近地点辐角 38.583°
升交点赤经 254.393°
平近点角 321.517°
近地点: 629.139km
远地点: 629.899km
周期: 97.301分钟
每日圈数: 14.799385
Detailed Information
使用方式:
暂无
2D Orbit Map
3D Orbit Map
Orbit Altitude Analysis Chart
Orbit Inclination Analysis Chart
Orbit Comprehensive Analysis Chart
View Comprehensive Chart
Conjunction Data List
Event ID Objects TCA Miss Dist (km) Collision Risk Probability Collision Risk Index (CRI) Action
CDM_260907-051106-101806-888921
2026-09-07T
05:11:35+0000
2.643 km
极远距离
1.393304E-6 低风险 0.38
CDM_260902-063805-891506-888922
2026-09-02T
06:38:10+0000
2.456 km
极远距离
1.283729E-6 低风险 0.37
CDM_260906-100605-849706-888922
2026-09-06T
10:06:31+0000
2.938 km
极远距离
1.131156E-6 低风险 0.36